This demonstration page uses our WeatherBlox Daily Observations layout. Learn more.

Left ArrowRight Arrow

Hourly Observations for May 13, 2017

Temp ( °F °C ) Dew Point ( °F °C ) Humidity (%) Winds ( mph kmh ) Pressure ( in mb ) Visibility ( mi km ) Precip ( " mm )
12:15 am 00:15 Clear 54 12 39 4 58 58 S 10 17 29.97 1015 10 16 0.00 0.00
12:35 am 00:35 Clear 55 13 39 4 55 55 S 10 17 29.97 1015 10 16 0.00 0.00
12:55 am 00:55 Clear 54 12 39 4 58 58 S 8 13 29.97 1015 10 16 0.00 0.00
1:15 am 01:15 Clear 54 12 39 4 58 58 S 9 15 29.97 1015 10 16 0.00 0.00
1:35 am 01:35 Clear 54 12 39 4 58 58 S 9 15 29.97 1015 10 16 0.00 0.00
1:55 am 01:55 Clear 52 11 39 4 62 62 S 7 11 30.00 1016 10 16 0.00 0.00
2:15 am 02:15 Clear 52 11 39 4 62 62 S 8 13 30.00 1016 10 16 0.00 0.00
2:35 am 02:35 Clear 50 10 39 4 67 67 S 6 9 30.00 1016 10 16 0.00 0.00
2:55 am 02:55 Clear 50 10 39 4 67 67 S 5 7 30.00 1016 10 16 0.00 0.00
3:15 am 03:15 Clear 50 10 39 4 67 67 S 5 7 30.00 1016 10 16 0.00 0.00
3:35 am 03:35 Clear 50 10 39 4 67 67 S 3 6 29.97 1015 10 16 0.00 0.00
3:55 am 03:55 Clear 50 10 39 4 67 67 S 5 7 29.97 1015 10 16 0.00 0.00
4:15 am 04:15 Clear 48 9 37 3 66 66 S 5 7 29.97 1015 10 16 0.00 0.00
4:35 am 04:35 Clear 48 9 39 4 71 71 S 3 6 29.97 1015 10 16 0.00 0.00
4:55 am 04:55 Clear 48 9 37 3 66 66 S 7 11 29.97 1015 10 16 0.00 0.00
5:15 am 05:15 Clear 46 8 37 3 71 71 S 6 9 29.97 1015 10 16 0.00 0.00
5:35 am 05:35 Clear 46 8 37 3 71 71 S 6 9 29.97 1015 10 16 0.00 0.00
5:55 am 05:55 Clear 46 8 37 3 71 71 S 5 7 29.97 1015 10 16 0.00 0.00
6:15 am 06:15 Clear 46 8 37 3 71 71 S 7 11 29.97 1015 10 16 0.00 0.00
6:35 am 06:35 Sunny 46 8 37 3 71 71 S 6 9 29.97 1015 10 16 0.00 0.00
6:55 am 06:55 Sunny 48 9 37 3 66 66 S 3 6 29.97 1015 10 16 0.00 0.00
7:15 am 07:15 Sunny 48 9 37 3 66 66 S 3 6 29.97 1015 10 16 0.00 0.00
7:35 am 07:35 Sunny 52 11 41 5 67 67 S 3 6 29.97 1015 10 16 0.00 0.00
7:55 am 07:55 Sunny 54 12 41 5 63 63 S 7 11 29.91 1013 10 16 0.00 0.00
8:15 am 08:15 Sunny 55 13 43 6 63 63 S 9 15 29.94 1014 10 16 0.00 0.00
8:35 am 08:35 Sunny 59 15 41 5 51 51 S 12 19 29.88 1012 10 16 0.00 0.00
8:55 am 08:55 Sunny 61 16 39 4 45 45 S 13 20 29.88 1012 10 16 0.00 0.00
9:15 am 09:15 Sunny 63 17 39 4 42 42 S 14 22 29.88 1012 10 16 0.00 0.00
9:35 am 09:35 Sunny 64 18 39 4 40 40 S 18 30 29.88 1012 10 16 0.00 0.00
9:55 am 09:55 Sunny 66 19 41 5 40 40 S 21 33 29.85 1011 10 16 0.00 0.00
10:15 am 10:15 Sunny 66 19 39 4 37 37 S 21 33 29.85 1011 10 16 0.00 0.00
10:35 am 10:35 Sunny 66 19 39 4 37 37 S 20 31 29.85 1011 10 16 0.00 0.00
10:55 am 10:55 Sunny 68 20 39 4 35 35 S 20 31 29.83 1010 10 16 0.00 0.00
11:15 am 11:15 Sunny 70 21 39 4 33 33 S 21 33 29.83 1010 10 16 0.00 0.00
11:35 am 11:35 Sunny 70 21 39 4 33 33 S 22 35 29.83 1010 10 16 0.00 0.00
11:55 am 11:55 Sunny 70 21 39 4 33 33 S 21 33 29.83 1010 10 16 0.00 0.00
12:15 pm 12:15 Sunny 72 22 39 4 31 31 S 20 31 29.83 1010 10 16 0.00 0.00
12:35 pm 12:35 Sunny 72 22 39 4 31 31 SSE 22 35 29.80 1009 10 16 0.00 0.00
12:55 pm 12:55 Sunny 73 23 43 6 33 33 S 21 33 29.77 1008 10 16 0.00 0.00
1:15 pm 13:15 Sunny 73 23 43 6 33 33 S 25 41 29.77 1008 10 16 0.00 0.00
1:35 pm 13:35 Sunny 75 24 41 5 29 29 SSE 21 33 29.77 1008 10 16 0.00 0.00
1:55 pm 13:55 Sunny 75 24 41 5 29 29 SSE 18 30 29.74 1007 10 16 0.00 0.00
2:15 pm 14:15 Sunny 75 24 39 4 27 27 S 23 37 29.74 1007 10 16 0.00 0.00
2:35 pm 14:35 Sunny 75 24 43 6 31 31 S 24 39 29.74 1007 10 16 0.00 0.00
2:55 pm 14:55 Sunny 75 24 43 6 31 31 SSE 23 37 29.71 1006 10 16 0.00 0.00
3:15 pm 15:15 Sunny 77 25 43 6 30 30 SSE 24 39 29.71 1006 10 16 0.00 0.00
3:35 pm 15:35 Sunny 77 25 43 6 30 30 S 23 37 29.71 1006 10 16 0.00 0.00
3:55 pm 15:55 Sunny 77 25 45 7 32 32 S 25 41 29.71 1006 10 16 0.00 0.00
4:15 pm 16:15 Sunny 79 26 45 7 30 30 S 26 43 29.65 1004 10 16 0.00 0.00
4:35 pm 16:35 Sunny 77 25 45 7 32 32 SSE 23 37 29.68 1005 10 16 0.00 0.00
4:55 pm 16:55 Sunny 79 26 46 8 32 32 S 22 35 29.65 1004 10 16 0.00 0.00
5:15 pm 17:15 Sunny 79 26 46 8 32 32 S 28 44 29.65 1004 10 16 0.00 0.00
5:35 pm 17:35 Sunny 79 26 46 8 32 32 S 28 44 29.62 1003 10 16 0.00 0.00
5:55 pm 17:55 Sunny 77 25 46 8 34 34 S 23 37 29.62 1003 10 16 0.00 0.00
6:15 pm 18:15 Sunny 77 25 46 8 34 34 S 24 39 29.62 1003 10 16 0.00 0.00
6:35 pm 18:35 Sunny 75 24 48 9 39 39 S 24 39 29.65 1004 10 16 0.00 0.00
6:55 pm 18:55 Sunny 75 24 48 9 39 39 S 24 39 29.65 1004 10 16 0.00 0.00
7:15 pm 19:15 Sunny 75 24 48 9 39 39 S 24 39 29.65 1004 10 16 0.00 0.00
7:35 pm 19:35 Sunny 73 23 48 9 41 41 S 28 44 29.65 1004 10 16 0.00 0.00
7:55 pm 19:55 Sunny 73 23 48 9 41 41 S 22 35 29.65 1004 10 16 0.00 0.00
8:15 pm 20:15 Sunny 72 22 48 9 44 44 SSE 17 28 29.65 1004 10 16 0.00 0.00
8:35 pm 20:35 Sunny 70 21 48 9 46 46 SSE 17 28 29.65 1004 10 16 0.00 0.00
8:55 pm 20:55 Clear 70 21 46 8 43 43 SSE 15 24 29.65 1004 10 16 0.00 0.00
9:15 pm 21:15 Clear 68 20 46 8 46 46 SSE 16 26 29.68 1005 10 16 0.00 0.00
9:35 pm 21:35 Clear 66 19 46 8 49 49 SSE 15 24 29.68 1005 10 16 0.00 0.00
9:55 pm 21:55 Clear 66 19 46 8 49 49 S 17 28 29.68 1005 10 16 0.00 0.00
10:15 pm 22:15 Clear 66 19 46 8 49 49 S 22 35 29.68 1005 10 16 0.00 0.00
10:35 pm 22:35 Clear 64 18 46 8 52 52 S 21 33 29.68 1005 10 16 0.00 0.00
10:55 pm 22:55 Clear 64 18 46 8 52 52 S 18 30 29.68 1005 10 16 0.00 0.00
11:15 pm 23:15 Clear 64 18 46 8 52 52 S 18 30 29.68 1005 10 16 0.00 0.00
11:35 pm 23:35 Clear 64 18 46 8 52 52 S 20 31 29.68 1005 10 16 0.00 0.00
11:55 pm 23:55 Clear 64 18 46 8 52 52 S 20 31 29.68 1005 10 16 0.00 0.00

Powered by AerisWeather